"Timestamp","TZ","WindDir_Mean (deg)","WindSpd_Mean (km/h)","WindSpd_Min (km/h)","WindSpd_Max (km/h)","Temp_Mean (deg)","RH_Mean (%)","MSLP_Mean (hPa)","Rain_Acc (mm)","Rain_Intensity (mm/h)","Hail_Acc (hits/cm2)","Hail_Intensity (hits/cm2hr)","Solar_Mean (W/m2)"
2021/05/29 00:00:00.008,n,265,1.08,0.72,1.08,12.8,67.4,1024.02,0,0,0,0,0.027008
2021/05/29 00:01:00.000,n,180,2.16,1.8,2.52,12.8,67.6,1024.02,0,0,0,0,0.030479
2021/05/29 00:02:00.002,n,153,1.8,1.08,2.52,12.7,67.5,1024.02,0,0,0,0,0.028725
2021/05/29 00:03:00.000,n,129,1.8,1.08,2.52,12.7,67.6,1024.02,0,0,0,0,0.023499
2021/05/29 00:04:00.000,n,223,0.72,0.72,1.08,12.7,67.8,1024.02,0,0,0,0,0.023499
2021/05/29 00:05:00.000,n,251,3.96,3.24,4.68,12.6,67.9,1024.02,0,0,0,0,0.023499
2021/05/29 00:06:00.006,n,19,0.72,0,1.44,12.6,68.7,1024.02,0,0,0,0,0.026131
2021/05/29 00:07:00.004,n,272,2.88,1.8,3.6,12.6,68.6,1023.92,0,0,0,0,0.028725
2021/05/29 00:08:00.001,n,106,0.72,0.36,1.08,12.6,68.6,1023.92,0,0,0,0,0.025253
2021/05/29 00:09:00.014,n,343,1.44,0.72,2.88,12.5,69.6,1023.92,0,0,0,0,0.024376
2021/05/29 00:10:00.000,n,256,1.44,1.08,2.16,12.5,69,1023.92,0,0,0,0,0.020866
2021/05/29 00:11:00.000,n,242,2.88,2.52,3.6,12.5,68.9,1023.92,0,0,0,0,0.027008
2021/05/29 00:12:00.000,n,230,1.44,1.08,1.44,12.5,68.9,1023.92,0,0,0,0,0.01915
2021/05/29 00:13:00.003,n,202,3.24,2.52,4.32,12.4,68.9,1023.82,0,0,0,0,0.021782
2021/05/29 00:14:00.001,n,179,1.08,0.72,1.44,12.4,69.1,1023.82,0,0,0,0,0.026131
2021/05/29 00:15:00.000,n,111,0.36,0.36,0.72,12.4,69.3,1023.82,0,0,0,0,0.023499
2021/05/29 00:16:00.010,n,212,1.8,0.72,3.24,12.4,69.2,1023.82,0,0,0,0,0.023499
2021/05/29 00:17:00.008,n,96,1.44,0.72,1.8,12.4,69.4,1023.82,0,0,0,0,0.023499
2021/05/29 00:18:00.005,n,134,1.44,0.72,2.16,12.4,69.3,1023.82,0,0,0,0,0.022659
2021/05/29 00:19:00.000,n,287,2.52,0.72,3.24,12.4,69.3,1023.82,0,0,0,0,0.023499
2021/05/29 00:20:00.000,n,168,1.8,0.72,2.88,12.4,69.4,1023.72,0,0,0,0,0.020866
2021/05/29 00:21:00.000,n,166,2.16,1.8,2.52,12.4,69,1023.72,0,0,0,0,0.027847
2021/05/29 00:22:00.007,n,310,2.52,1.8,3.6,12.3,69.2,1023.72,0,0,0,0,0.034828
2021/05/29 00:23:00.005,n,251,2.52,2.16,3.24,12.3,69.5,1023.72,0,0,0,0,0.031357
2021/05/29 00:24:00.002,n,287,2.16,1.8,2.16,12.3,69.3,1023.72,0,0,0,0,0.033073
2021/05/29 00:25:00.000,n,288,1.8,1.08,2.52,12.3,70,1023.72,0,0,0,0,0.034828
2021/05/29 00:26:00.012,n,296,1.08,0,1.44,12.3,69.9,1023.72,0,0,0,0,0.028725
2021/05/29 00:27:00.010,n,154,3.96,3.24,3.96,12.3,69.7,1023.72,0,0,0,0,0.031357
2021/05/29 00:28:00.000,n,184,4.32,3.6,5.4,12.3,69.8,1023.62,0,0,0,0,0.024376
2021/05/29 00:29:00.000,n,237,1.08,0.72,1.44,12.3,69.9,1023.62,0,0,0,0,0.027847
2021/05/29 00:30:00.002,n,159,1.8,0.36,2.52,12.3,70.1,1023.62,0,0,0,0,0.033073
2021/05/29 00:31:00.000,n,264,2.16,1.44,2.52,12.3,70.1,1023.62,0,0,0,0,0.023499
2021/05/29 00:32:00.000,n,251,1.44,0.72,1.8,12.2,70.4,1023.62,0,0,0,0,0.027847
2021/05/29 00:33:00.009,n,302,1.44,1.08,1.8,12.2,70.4,1023.52,0,0,0,0,0.028725
2021/05/29 00:34:00.006,n,225,2.52,1.8,3.24,12.2,70.5,1023.52,0,0,0,0,0.026131
2021/05/29 00:35:00.004,n,292,3.96,3.24,5.04,12.2,70.8,1023.52,0,0,0,0,0.025253
2021/05/29 00:36:00.001,n,292,4.32,3.96,5.04,12.2,70.6,1023.52,0,0,0,0,0.025253
2021/05/29 00:37:00.000,n,230,4.32,3.24,5.76,12.1,70.6,1023.42,0,0,0,0,0.025253
2021/05/29 00:38:00.000,n,260,2.16,2.16,2.52,12.1,70.4,1023.52,0,0,0,0,0.025253
2021/05/29 00:39:00.000,n,272,5.04,4.68,5.76,12.1,70.6,1023.52,0,0,0,0,0.024376
2021/05/29 00:40:00.006,n,7,2.16,1.44,3.6,12.1,71,1023.42,0,0,0,0,0.023499
2021/05/29 00:41:00.004,n,277,2.52,1.44,4.32,12.1,70.8,1023.42,0,0,0,0,0.027885
2021/05/29 00:42:00.000,n,341,1.08,0.72,1.08,12.1,70.7,1023.42,0,0,0,0,0.035706
2021/05/29 00:43:00.000,n,285,2.16,1.44,3.96,12.1,70.8,1023.32,0,0,0,0,0.0383
2021/05/29 00:44:00.010,n,234,1.44,0.72,2.16,12,71,1023.32,0,0,0,0,0.033951
2021/05/29 00:45:00.007,n,267,2.52,2.16,2.88,12,71.1,1023.32,0,0,0,0,0.033073
2021/05/29 00:46:00.000,n,134,1.44,0.72,2.16,12,71.2,1023.32,0,0,0,0,0.034828
2021/05/29 00:47:00.002,n,233,1.08,0.72,1.44,11.9,71.3,1023.32,0,0,0,0,0.031319
2021/05/29 00:48:00.000,n,254,3.6,3.24,3.6,11.9,71.3,1023.32,0,0,0,0,0.034828
2021/05/29 00:49:00.000,n,243,3.24,2.88,4.32,11.9,71.4,1023.32,0,0,0,0,0.030479
2021/05/29 00:50:00.000,n,265,3.6,2.88,3.96,11.8,71.5,1023.32,0,0,0,0,0.032234
2021/05/29 00:51:00.007,n,164,0.72,0.36,0.72,11.8,71.5,1023.32,0,0,0,0,0.027885
2021/05/29 00:52:00.005,n,261,4.32,2.52,5.4,11.8,71.6,1023.32,0,0,0,0,0.025253
2021/05/29 00:53:00.001,n,260,2.16,2.16,3.24,11.8,71.5,1023.32,0,0,0,0,0.029602
2021/05/29 00:54:00.015,n,292,2.52,1.8,3.24,11.8,71.8,1023.32,0,0,0,0,0.026131
2021/05/29 00:55:00.000,n,249,3.24,2.88,3.6,11.8,71.6,1023.32,0,0,0,0,0.02697
2021/05/29 00:56:00.000,n,266,2.88,2.88,3.24,11.8,71.5,1023.32,0,0,0,0,0.02697
2021/05/29 00:57:00.000,n,257,3.6,2.88,4.32,11.7,71.6,1023.32,0,0,0,0,0.025253
2021/05/29 00:58:00.004,n,231,2.52,1.8,3.24,11.7,71.6,1023.32,0,0,0,0,0.028725
2021/05/29 00:59:00.001,n,284,2.16,1.8,2.88,11.7,71.6,1023.32,0,0,0,0,0.025253
2021/05/29 01:00:00.000,n,300,2.88,1.44,3.6,11.7,71.5,1023.32,0,0,0,0,0.025253
2021/05/29 01:01:00.011,n,291,3.24,2.52,4.32,11.7,71.4,1023.32,0,0,0,0,0.024376
2021/05/29 01:02:00.009,n,270,5.04,5.04,5.76,11.7,71.3,1023.32,0,0,0,0,0.026131
2021/05/29 01:03:00.007,n,275,2.16,1.44,2.88,11.7,71.1,1023.32,0,0,0,0,0.024376
2021/05/29 01:04:00.000,n,294,4.68,3.24,5.76,11.7,70.9,1023.32,0,0,0,0,0.024376
2021/05/29 01:05:00.000,n,270,4.32,3.24,5.76,11.6,70.7,1023.32,0,0,0,0,0.024376
2021/05/29 01:06:00.000,n,259,5.4,4.68,6.12,11.6,70.5,1023.32,0,0,0,0,0.021744
2021/05/29 01:07:00.000,n,254,6.84,6.12,7.56,11.6,70.2,1023.32,0,0,0,0,0.020905
2021/05/29 01:08:00.000,n,247,3.96,3.6,4.32,11.6,70.1,1023.32,0,0,0,0,0.029602
2021/05/29 01:09:00.007,n,257,6.48,5.76,7.56,11.6,69.8,1023.32,0,0,0,0,0.035744
2021/05/29 01:10:00.005,n,240,5.04,4.32,5.4,11.6,69.6,1023.32,0,0,0,0,0.029602
2021/05/29 01:11:00.003,n,262,5.4,5.04,6.12,11.6,69.4,1023.32,0,0,0,0,0.038376
2021/05/29 01:12:00.001,n,261,6.84,6.48,7.92,11.6,69.2,1023.32,0,0,0,0,0.03746
2021/05/29 01:13:00.000,n,250,4.68,3.96,6.48,11.6,69,1023.32,0,0,0,0,0.033989
2021/05/29 01:14:00.000,n,257,7.92,5.76,9.36,11.6,68.9,1023.32,0,0,0,0,0.035744
2021/05/29 01:15:00.000,n,274,3.96,2.88,5.04,11.7,68.9,1023.32,0,0,0,0,0.030518
2021/05/29 01:16:00.006,n,255,3.24,2.88,4.32,11.7,68.8,1023.22,0,0,0,0,0.033112
2021/05/29 01:17:00.003,n,252,4.32,3.96,5.04,11.7,68.7,1023.32,0,0,0,0,0.034866
2021/05/29 01:18:00.000,n,296,2.16,1.8,2.52,11.7,68.7,1023.22,0,0,0,0,0.033989
2021/05/29 01:19:00.000,n,263,5.76,4.68,6.48,11.7,68.6,1023.22,0,0,0,0,0.032234
2021/05/29 01:20:00.010,n,254,3.6,2.88,3.96,11.6,68.6,1023.22,0,0,0,0,0.031395
2021/05/29 01:21:00.007,n,271,2.88,1.8,3.6,11.7,68.5,1023.22,0,0,0,0,0.033989
2021/05/29 01:22:00.000,n,246,4.68,3.24,5.04,11.6,68.6,1023.22,0,0,0,0,0.029602
2021/05/29 01:23:00.000,n,255,3.96,2.52,5.04,11.6,68.6,1023.22,0,0,0,0,0.033112
2021/05/29 01:24:00.000,n,274,4.32,1.08,7.56,11.6,68.6,1023.22,0,0,0,0,0.026169
2021/05/29 01:25:00.000,n,277,5.76,5.04,6.48,11.6,68.6,1023.22,0,0,0,0,0.030518
2021/05/29 01:26:00.009,n,252,5.04,4.32,5.4,11.6,68.7,1023.22,0,0,0,0,0.027046
2021/05/29 01:27:00.007,n,334,4.68,4.68,5.4,11.6,68.8,1023.22,0,0,0,0,0.026169
2021/05/29 01:28:00.003,n,280,2.52,2.52,2.88,11.6,69.1,1023.22,0,0,0,0,0.024414
2021/05/29 01:29:00.001,n,226,2.16,2.16,2.88,11.6,68.8,1023.22,0,0,0,0,0.026169
2021/05/29 01:30:00.014,n,253,3.6,3.24,4.32,11.6,68.7,1023.22,0,0,0,0,0.026169
2021/05/29 01:31:00.000,n,240,1.44,0.36,3.24,11.5,68.7,1023.22,0,0,0,0,0.028763
2021/05/29 01:32:00.000,n,234,2.52,2.16,2.88,11.5,68.8,1023.22,0,0,0,0,0.022659
2021/05/29 01:33:00.000,n,319,3.6,2.88,4.32,11.5,68.9,1023.22,0,0,0,0,0.026169
2021/05/29 01:34:00.003,n,214,1.8,1.44,2.16,11.5,68.4,1023.22,0,0,0,0,0.027885
2021/05/29 01:35:00.000,n,174,3.24,2.88,3.6,11.5,67.6,1023.22,0,0,0,0,0.027885
2021/05/29 01:36:00.000,n,114,1.44,0.36,3.6,11.6,67.3,1023.22,0,0,0,0,0.027885
2021/05/29 01:37:00.010,n,226,5.76,5.04,6.48,11.6,66.199996,1023.22,0,0,0,0,0.025253
2021/05/29 01:38:00.008,n,271,0.72,0.72,1.08,11.7,66,1023.22,0,0,0,0,0.022659
2021/05/29 01:39:00.004,n,255,4.68,4.32,5.04,11.7,66,1023.22,0,0,0,0,0.030518
2021/05/29 01:40:00.002,n,181,3.96,3.24,4.68,11.8,65.9,1023.22,0,0,0,0,0.027885
2021/05/29 01:41:00.000,n,276,3.24,2.88,3.6,11.8,65.699996,1023.22,0,0,0,0,0.029602
2021/05/29 01:42:00.000,n,241,2.16,1.8,2.52,11.8,65.9,1023.22,0,0,0,0,0.025253
2021/05/29 01:43:00.000,n,204,1.44,0.72,2.88,11.8,65.1,1023.22,0,0,0,0,0.025253
2021/05/29 01:44:00.006,n,273,1.44,1.44,1.8,11.8,65.5,1023.22,0,0,0,0,0.023499
2021/05/29 01:45:00.002,n,231,0.72,0.72,1.8,11.8,65.5,1023.22,0,0,0,0,0.030479
2021/05/29 01:46:00.000,n,263,1.08,0.36,2.16,11.8,63.8,1023.22,0,0,0,0,0.036583
2021/05/29 01:47:00.014,n,158,6.48,5.76,7.2,11.9,63.6,1023.22,0,0,0,0,0.027008
2021/05/29 01:48:00.011,n,220,5.76,5.04,7.56,12,63,1023.22,0,0,0,0,0.027847
2021/05/29 01:49:00.000,n,162,1.44,1.08,1.44,12,63.3,1023.22,0,0,0,0,0.027847
2021/05/29 01:50:00.000,n,208,5.4,5.04,6.12,12.1,62.9,1023.22,0,0,0,0,0.031357
2021/05/29 01:51:00.002,n,277,3.24,2.52,4.32,12.1,62.6,1023.12,0,0,0,0,0.024414
2021/05/29 01:52:00.000,n,162,1.8,1.08,2.16,12.1,62.6,1023.12,0,0,0,0,0.026131
2021/05/29 01:53:00.000,n,153,0.72,0.36,1.8,12.1,62.6,1023.22,0,0,0,0,0.027008
2021/05/29 01:54:00.010,n,143,1.44,1.08,2.16,12.1,62.9,1023.22,0,0,0,0,0.029602
2021/05/29 01:55:00.007,n,274,1.8,0.72,2.88,12.1,62.9,1023.12,0,0,0,0,0.026131
2021/05/29 01:56:00.005,n,178,9.72,9,10.440002,12.1,62,1023.12,0,0,0,0,0.027847
2021/05/29 01:57:00.001,n,176,3.24,2.88,3.96,12.1,61.5,1023.12,0,0,0,0,0.024414
2021/05/29 01:58:00.000,n,258,5.04,4.68,6.12,12.1,62.1,1023.12,0,0,0,0,0.029602
2021/05/29 01:59:00.000,n,192,6.12,5.76,6.84,12.1,61.7,1023.12,0,0,0,0,0.029602
2021/05/29 02:00:00.000,n,191,2.16,1.44,2.16,12.2,61.8,1023.12,0,0,0,0,0.031357
2021/05/29 02:01:00.006,n,277,1.08,0.72,1.08,12.2,61.8,1023.12,0,0,0,0,0.026131
2021/05/29 02:02:00.004,n,257,1.08,0.72,1.44,12.2,62.1,1023.02,0,0,0,0,0.026131
2021/05/29 02:03:00.000,n,158,9,7.2,10.08,12.2,61,1023.02,0,0,0,0,0.032234
2021/05/29 02:04:00.000,n,212,2.16,1.44,2.52,12.1,61.8,1023.02,0,0,0,0,0.033112
2021/05/29 02:05:00.011,n,150,2.52,1.8,4.32,12.1,60.9,1023.02,0,0,0,0,0.025253
2021/05/29 02:06:00.009,n,166,2.88,0.72,4.68,12.1,61.4,1023.02,0,0,0,0,0.026131
2021/05/29 02:07:00.000,n,237,3.24,2.88,3.6,12.1,62.1,1023.02,0,0,0,0,0.027008
2021/05/29 02:08:00.002,n,193,5.76,3.96,7.56,12.1,61.5,1023.02,0,0,0,0,0.029602
2021/05/29 02:09:00.000,n,283,2.52,2.16,3.24,12.1,61.5,1023.02,0,0,0,0,0.024414
2021/05/29 02:10:00.000,n,191,5.04,4.32,6.48,12.1,61.6,1023.02,0,0,0,0,0.027008
2021/05/29 02:11:00.000,n,197,9.36,7.56,10.8,12.1,60.4,1023.02,0,0,0,0,0.029602
2021/05/29 02:12:00.007,n,187,11.16,6.48,13.68,12.1,59.4,1023.02,0,0,0,0,0.029602
2021/05/29 02:13:00.004,n,160,14.4,4.32,19.08,12.1,59,1022.92,0,0,0,0,0.026131
2021/05/29 02:14:00.002,n,320,2.88,2.52,3.24,12.2,59.4,1022.92,0,0,0,0,0.027847
2021/05/29 02:15:00.000,n,206,3.96,0.72,5.76,12.2,59.4,1022.92,0,0,0,0,0.022659
2021/05/29 02:16:00.000,n,183,6.48,4.68,7.56,12.2,58.5,1022.92,0,0,0,0,0.027847
2021/05/29 02:17:00.000,n,153,5.04,2.16,10.440002,12.2,58,1022.92,0,0,0,0,0.028763
2021/05/29 02:18:00.000,n,162,6.12,2.88,9.36,12.3,58,1022.92,0,0,0,0,0.022659
2021/05/29 02:19:00.005,n,212,9.36,7.56,10.8,12.3,57.7,1022.92,0,0,0,0,0.026131
2021/05/29 02:20:00.003,n,189,7.92,4.32,9.72,12.3,57.5,1022.92,0,0,0,0,0.022659
2021/05/29 02:21:00.000,n,158,5.76,3.6,8.28,12.3,57.3,1022.92,0,0,0,0,0.025253
2021/05/29 02:22:00.000,n,232,3.96,3.24,4.32,12.3,57.8,1023.02,0,0,0,0,0.028763
2021/05/29 02:23:00.011,n,218,4.68,4.32,5.76,12.3,57.8,1023.02,0,0,0,0,0.031357
2021/05/29 02:24:00.008,n,172,3.24,1.8,5.04,12.3,57.9,1022.92,0,0,0,0,0.023499
2021/05/29 02:25:00.000,n,189,2.52,1.44,3.6,12.3,58.1,1022.92,0,0,0,0,0.022659
2021/05/29 02:26:00.002,n,218,8.64,6.48,10.440002,12.2,57.9,1022.92,0,0,0,0,0.023499
2021/05/29 02:27:00.000,n,161,7.56,7.2,8.28,12.2,57.3,1022.92,0,0,0,0,0.026131
2021/05/29 02:28:00.000,n,222,3.24,2.88,3.96,12.2,58,1022.92,0,0,0,0,0.022659
2021/05/29 02:29:00.000,n,217,5.04,2.88,6.12,12.2,58.2,1022.92,0,0,0,0,0.026131
2021/05/29 02:30:00.007,n,186,4.68,3.24,7.2,12.2,57.7,1022.92,0,0,0,0,0.021782
2021/05/29 02:31:00.005,n,256,3.6,3.24,3.96,12.2,57.6,1022.92,0,0,0,0,0.028763
2021/05/29 02:32:00.003,n,166,1.44,1.08,2.52,12.1,57.3,1022.92,0,0,0,0,0.021782
2021/05/29 02:33:00.000,n,231,3.6,2.88,4.32,12.1,57.3,1022.92,0,0,0,0,0.027008
2021/05/29 02:34:00.000,n,194,4.32,3.96,5.04,12.1,57,1022.92,0,0,0,0,0.028763
2021/05/29 02:35:00.000,n,218,7.2,6.84,8.28,12.1,56.4,1022.92,0,0,0,0,0.022659
2021/05/29 02:36:00.000,n,227,5.04,4.32,5.76,12.2,56.7,1022.92,0,0,0,0,0.027847
2021/05/29 02:37:00.005,n,264,5.4,5.04,6.12,12.2,56.8,1022.92,0,0,0,0,0.028763
2021/05/29 02:38:00.003,n,282,3.6,1.44,5.04,12.2,56.2,1022.92,0,0,0,0,0.027008
2021/05/29 02:39:00.000,n,173,11.52,9.36,12.24,12.2,55.7,1022.92,0,0,0,0,0.023499
2021/05/29 02:40:00.000,n,158,9,7.56,10.08,12.2,56,1022.92,0,0,0,0,0.023499
2021/05/29 02:41:00.012,n,186,10.8,9.36,11.52,12.2,55.3,1022.82,0,0,0,0,0.023499
2021/05/29 02:42:00.009,n,169,13.32,11.52,16.56,12.2,55.4,1022.82,0,0,0,0,0.029602
2021/05/29 02:43:00.000,n,257,2.16,0.72,2.52,12.2,56.1,1022.82,0,0,0,0,0.022659
2021/05/29 02:44:00.002,n,281,6.84,5.76,7.56,12.2,55.8,1022.82,0,0,0,0,0.027008
2021/05/29 02:45:00.000,n,259,4.68,3.6,5.76,12.2,55.8,1022.82,0,0,0,0,0.026131
2021/05/29 02:46:00.000,n,170,9,7.92,9.72,12.2,55.8,1022.82,0,0,0,0,0.027847
2021/05/29 02:47:00.000,n,174,8.64,5.04,11.16,12.2,54.7,1022.82,0,0,0,0,0.027008
2021/05/29 02:48:00.007,n,200,3.6,1.8,5.76,12.2,54.7,1022.92,0,0,0,0,0.022659
2021/05/29 02:49:00.005,n,28,1.8,1.08,3.6,12.2,55.2,1022.92,0,0,0,0,0.027008
2021/05/29 02:50:00.002,n,191,3.24,2.88,3.6,12.2,55.2,1022.92,0,0,0,0,0.029602
2021/05/29 02:51:00.015,n,248,2.16,2.16,2.52,12.2,55.5,1022.92,0,0,0,0,0.025253
2021/05/29 02:52:00.000,n,272,1.08,0.72,1.08,12.1,55.8,1022.92,0,0,0,0,0.028763
2021/05/29 02:53:00.000,n,208,1.8,0.72,2.52,12.1,55.7,1022.92,0,0,0,0,0.027008
2021/05/29 02:54:00.000,n,168,6.12,5.04,8.64,12.1,55.3,1022.92,0,0,0,0,0.027008
2021/05/29 02:55:00.005,n,307,1.44,0.36,2.88,12,55.8,1022.92,0,0,0,0,0.022659
2021/05/29 02:56:00.001,n,184,3.24,0.36,6.12,12,55.9,1022.92,0,0,0,0,0.024414
2021/05/29 02:57:00.000,n,173,1.44,0.72,2.16,12,55.8,1022.92,0,0,0,0,0.024414
2021/05/29 02:58:00.000,n,220,5.76,4.68,6.48,12,56.4,1022.92,0,0,0,0,0.027008
2021/05/29 02:59:00.013,n,175,5.76,5.04,8.28,12,56.3,1022.92,0,0,0,0,0.027847
2021/05/29 03:00:00.010,n,263,1.44,0.72,1.8,12,56.7,1022.92,0,0,0,0,0.031357
2021/05/29 03:01:00.000,n,294,1.08,0,1.8,11.9,56.5,1023.02,0,0,0,0,0.038338
2021/05/29 03:02:00.000,n,221,2.16,1.44,2.88,11.9,56.8,1023.02,0,0,0,0,0.035706
2021/05/29 03:03:00.004,n,115,0.36,0,0.72,11.9,56.8,1023.02,0,0,0,0,0.03746
2021/05/29 03:04:00.002,n,268,1.8,1.44,2.52,11.9,56.9,1023.02,0,0,0,0,0.043526
2021/05/29 03:05:00.000,n,246,1.8,1.08,2.16,11.8,57,1023.02,0,0,0,0,0.03746
2021/05/29 03:06:00.000,n,141,0.36,0.36,0.72,11.8,57.1,1023.02,0,0,0,0,0.035706
2021/05/29 03:07:00.009,n,337,2.88,1.44,3.6,11.8,57.6,1023.02,0,0,0,0,0.044403
2021/05/29 03:08:00.007,n,266,1.44,0.72,2.16,11.8,57.3,1023.02,0,0,0,0,0.041809
2021/05/29 03:09:00.003,n,207,1.08,0.36,1.44,11.7,57.3,1023.02,0,0,0,0,0.039177
2021/05/29 03:10:00.001,n,167,1.08,0.36,1.44,11.7,57.6,1023.12,0,0,0,0,0.040932
2021/05/29 03:11:00.000,n,279,0.72,0.36,1.44,11.7,57.7,1023.12,0,0,0,0,0.039177
2021/05/29 03:12:00.000,n,265,1.08,0.72,1.08,11.6,57.8,1023.12,0,0,0,0,0.040932
2021/05/29 03:13:00.000,n,235,2.16,2.16,2.52,11.6,58,1023.02,0,0,0,0,0.040054
2021/05/29 03:14:00.006,n,273,1.8,1.08,2.16,11.6,57.9,1023.02,0,0,0,0,0.035706
2021/05/29 03:15:00.005,n,245,2.88,2.16,3.6,11.5,57.6,1023.02,0,0,0,0,0.034828
2021/05/29 03:16:00.002,n,173,1.8,1.44,2.52,11.5,58,1023.02,0,0,0,0,0.033989
2021/05/29 03:17:00.000,n,258,3.96,3.24,4.68,11.5,58.4,1023.02,0,0,0,0,0.03746
2021/05/29 03:18:00.011,n,183,2.88,2.16,3.24,11.5,58.1,1023.02,0,0,0,0,0.032196
2021/05/29 03:19:00.000,n,214,0.72,0.36,1.8,11.5,58.5,1023.02,0,0,0,0,0.032196
2021/05/29 03:20:00.000,n,277,1.8,1.44,1.8,11.5,58.9,1023.02,0,0,0,0,0.036583
2021/05/29 03:21:00.003,n,248,1.8,1.08,1.8,11.5,59.4,1023.02,0,0,0,0,0.036583
2021/05/29 03:22:00.000,n,223,1.8,1.44,2.16,11.4,59.6,1023.02,0,0,0,0,0.032196
2021/05/29 03:23:00.000,n,176,2.88,1.44,3.96,11.4,60.1,1023.02,0,0,0,0,0.033073
2021/05/29 03:24:00.000,n,231,0.72,0,2.16,11.4,60.6,1023.02,0,0,0,0,0.03746
2021/05/29 03:25:00.008,n,19,1.08,0.72,2.16,11.4,61.2,1023.02,0,0,0,0,0.031357
2021/05/29 03:26:00.005,n,235,1.08,0.72,1.44,11.4,61.3,1023.02,0,0,0,0,0.034828
2021/05/29 03:27:00.002,n,306,2.88,2.16,3.24,11.4,61.6,1023.02,0,0,0,0,0.034828
2021/05/29 03:28:00.000,n,285,2.52,2.16,2.88,11.4,62,1023.02,0,0,0,0,0.033073
2021/05/29 03:29:00.000,n,245,2.52,2.16,2.88,11.4,62.1,1023.02,0,0,0,0,0.039177
2021/05/29 03:30:00.000,n,239,0.72,0.36,1.44,11.3,62.4,1023.02,0,0,0,0,0.036583
2021/05/29 03:31:00.000,n,266,4.68,3.96,5.4,11.3,62.5,1023.02,0,0,0,0,0.032196
2021/05/29 03:32:00.004,n,267,1.44,0.72,1.44,11.3,62.6,1023.02,0,0,0,0,0.031357
2021/05/29 03:33:00.002,n,275,1.8,1.08,2.52,11.3,62.8,1023.02,0,0,0,0,0.035706
2021/05/29 03:34:00.000,n,149,6.12,5.04,7.92,11.2,62.5,1023.02,0,0,0,0,0.02964
2021/05/29 03:35:00.012,n,248,2.16,2.16,2.88,11.2,62.8,1023.02,0,0,0,0,0.026131
2021/05/29 03:36:00.009,n,91,1.44,1.08,1.8,11.2,63.1,1023.02,0,0,0,0,0.030479
2021/05/29 03:37:00.000,n,294,3.6,2.52,3.96,11.2,62.9,1023.02,0,0,0,0,0.027847
2021/05/29 03:38:00.000,n,301,1.44,0.72,1.44,11.2,62.9,1023.02,0,0,0,0,0.033073
2021/05/29 03:39:00.001,n,176,2.88,2.16,3.6,11.2,62.7,1023.02,0,0,0,0,0.027008
2021/05/29 03:40:00.000,n,200,3.6,2.88,4.68,11.2,62.6,1023.02,0,0,0,0,0.027847
2021/05/29 03:41:00.000,n,219,2.52,1.8,3.24,11.3,62.6,1023.02,0,0,0,0,0.030479
2021/05/29 03:42:00.008,n,167,1.44,1.08,2.16,11.3,62.5,1023.02,0,0,0,0,0.027847
2021/05/29 03:43:00.006,n,160,0.72,0.36,1.44,11.3,62.1,1023.02,0,0,0,0,0.027847
2021/05/29 03:44:00.002,n,267,4.32,3.96,5.4,11.3,61.9,1023.12,0,0,0,0,0.027847
2021/05/29 03:45:00.000,n,263,3.24,2.52,3.6,11.3,61.6,1023.12,0,0,0,0,0.027847
2021/05/29 03:46:00.000,n,195,1.08,0.72,1.8,11.3,61.7,1023.02,0,0,0,0,0.028725
2021/05/29 03:47:00.000,n,250,2.88,2.16,3.24,11.3,61.6,1023.12,0,0,0,0,0.025253
2021/05/29 03:48:00.000,n,308,1.8,1.44,2.16,11.3,61.8,1023.12,0,0,0,0,0.027008
2021/05/29 03:49:00.005,n,263,2.52,1.44,2.88,11.3,61.8,1023.12,0,0,0,0,0.023499
2021/05/29 03:50:00.002,n,283,1.44,0.72,2.52,11.3,61.8,1023.12,0,0,0,0,0.027008
2021/05/29 03:51:00.000,n,273,4.68,3.96,5.4,11.3,62,1023.02,0,0,0,0,0.030479
2021/05/29 03:52:00.000,n,228,4.32,2.52,5.04,11.3,61.7,1023.02,0,0,0,0,0.02964
2021/05/29 03:53:00.012,n,282,6.48,5.4,7.92,11.3,61.3,1023.02,0,0,0,0,0.027008
2021/05/29 03:54:00.009,n,219,4.32,3.6,4.68,11.3,61.2,1023.02,0,0,0,0,0.024376
2021/05/29 03:55:00.000,n,272,9,6.12,10.8,11.4,60.2,1023.02,0,0,0,0,0.02964
2021/05/29 03:56:00.003,n,276,4.32,3.96,5.04,11.4,59.2,1023.02,0,0,0,0,0.023499
2021/05/29 03:57:00.002,n,245,8.64,7.92,9.72,11.4,58.8,1023.02,0,0,0,0,0.027847
2021/05/29 03:58:00.000,n,251,7.56,5.76,11.52,11.5,57.6,1023.02,0,0,0,0,0.026131
2021/05/29 03:59:00.000,n,242,9,8.28,9.72,11.5,57.4,1023.02,0,0,0,0,0.028725
2021/05/29 04:00:00.009,n,280,5.76,5.4,6.12,11.6,56.4,1023.02,0,0,0,0,0.028725
2021/05/29 04:01:00.006,n,215,7.56,5.4,9,11.6,55.9,1023.02,0,0,0,0,0.025253
2021/05/29 04:02:00.003,n,240,7.56,6.84,8.28,11.6,55.2,1023.02,0,0,0,0,0.027847
2021/05/29 04:03:00.002,n,270,3.24,1.8,3.96,11.7,55,1023.02,0,0,0,0,0.026131
2021/05/29 04:04:00.000,n,259,6.12,4.68,6.84,11.7,54.5,1023.02,0,0,0,0,0.021782
2021/05/29 04:05:00.000,n,253,4.32,2.88,5.4,11.8,54.5,1023.02,0,0,0,0,0.027008
2021/05/29 04:06:00.000,n,267,6.48,5.76,7.56,11.8,54.2,1023.02,0,0,0,0,0.024376
2021/05/29 04:07:00.000,n,247,6.12,5.4,6.84,11.8,53.8,1023.02,0,0,0,0,0.028725
2021/05/29 04:08:00.006,n,288,1.8,0.72,2.88,11.9,53.9,1023.12,0,0,0,0,0.020027
2021/05/29 04:09:00.003,n,301,5.04,4.32,6.84,11.9,53.9,1023.12,0,0,0,0,0.028725
2021/05/29 04:10:00.002,n,269,6.48,3.6,7.92,11.9,53.9,1023.12,0,0,0,0,0.027008
2021/05/29 04:11:00.000,n,275,3.96,3.24,4.32,11.9,54.4,1023.12,0,0,0,0,0.02964
2021/05/29 04:12:00.013,n,261,5.04,3.96,5.76,11.8,54.2,1023.12,0,0,0,0,0.027008
2021/05/29 04:13:00.000,n,257,1.44,0.36,2.88,11.8,54.2,1023.12,0,0,0,0,0.024376
2021/05/29 04:14:00.000,n,264,6.48,5.4,7.92,11.8,54.2,1023.12,0,0,0,0,0.02964
2021/05/29 04:15:00.004,n,229,3.6,2.88,5.04,11.8,54.4,1023.22,0,0,0,0,0.027008
2021/05/29 04:16:00.001,n,201,3.24,2.16,3.96,11.8,54,1023.22,0,0,0,0,0.022659
2021/05/29 04:17:00.000,n,220,2.88,2.52,3.6,11.8,54.4,1023.22,0,0,0,0,0.025253
2021/05/29 04:18:00.000,n,191,2.52,1.44,3.6,11.8,54.3,1023.22,0,0,0,0,0.027847
2021/05/29 04:19:00.011,n,292,2.52,1.08,3.96,11.8,54.1,1023.32,0,0,0,0,0.026131
2021/05/29 04:20:00.008,n,211,1.44,0.72,2.88,11.8,53.8,1023.22,0,0,0,0,0.027847
2021/05/29 04:21:00.005,n,185,5.4,3.6,7.92,11.8,53.7,1023.32,0,0,0,0,0.025253
2021/05/29 04:22:00.001,n,291,3.6,2.88,4.68,11.8,54,1023.32,0,0,0,0,0.030479
2021/05/29 04:23:00.000,n,202,2.52,0.72,3.6,11.8,53.8,1023.32,0,0,0,0,0.026131
2021/05/29 04:24:00.000,n,252,5.76,4.68,6.12,11.8,53.9,1023.32,0,0,0,0,0.024376
2021/05/29 04:25:00.000,n,244,1.8,0.72,2.52,11.8,54.1,1023.32,0,0,0,0,0.027008
2021/05/29 04:26:00.005,n,271,5.04,3.96,5.76,11.8,54.2,1023.32,0,0,0,0,0.027008
2021/05/29 04:27:00.002,n,266,3.6,2.88,3.96,11.8,54.5,1023.32,0,0,0,0,0.02964
2021/05/29 04:28:00.000,n,302,4.32,3.6,5.76,11.8,54.2,1023.32,0,0,0,0,0.026131
2021/05/29 04:29:00.013,n,241,3.96,3.24,3.96,11.8,54.2,1023.32,0,0,0,0,0.027847
2021/05/29 04:30:00.011,n,269,3.24,2.52,3.24,11.8,54.1,1023.32,0,0,0,0,0.028725
2021/05/29 04:31:00.000,n,256,7.56,6.48,8.28,11.8,54.1,1023.32,0,0,0,0,0.030479
2021/05/29 04:32:00.000,n,260,9,8.28,10.08,11.8,54,1023.32,0,0,0,0,0.027847
2021/05/29 04:33:00.000,n,252,6.84,6.12,8.64,11.8,54,1023.32,0,0,0,0,0.033073
2021/05/29 04:34:00.000,n,255,9,6.12,10.440002,11.8,53.9,1023.32,0,0,0,0,0.027847
2021/05/29 04:35:00.000,n,256,7.2,6.48,7.92,11.8,53.6,1023.42,0,0,0,0,0.032196
2021/05/29 04:36:00.008,n,224,4.68,2.16,6.84,11.8,53.7,1023.42,0,0,0,0,0.031357
2021/05/29 04:37:00.005,n,241,8.28,7.92,10.08,11.8,53.5,1023.42,0,0,0,0,0.034828
2021/05/29 04:38:00.002,n,290,3.6,1.8,5.4,11.8,53.9,1023.52,0,0,0,0,0.031357
2021/05/29 04:39:00.000,n,250,5.4,4.68,5.76,11.7,53.8,1023.42,0,0,0,0,0.026131
2021/05/29 04:40:00.000,n,218,6.12,3.96,6.84,11.7,53.7,1023.52,0,0,0,0,0.032196
2021/05/29 04:41:00.000,n,275,5.76,5.4,6.84,11.7,53.7,1023.52,0,0,0,0,0.02964
2021/05/29 04:42:00.000,n,254,11.88,10.440002,13.32,11.7,53.7,1023.52,0,0,0,0,0.02964
2021/05/29 04:43:00.005,n,263,9.36,8.28,10.08,11.7,54,1023.52,0,0,0,0,0.028725
2021/05/29 04:44:00.002,n,247,10.440002,9,11.16,11.6,54,1023.52,0,0,0,0,0.027008
2021/05/29 04:45:00.000,n,266,7.92,7.2,8.64,11.6,54.2,1023.52,0,0,0,0,0.028725
2021/05/29 04:46:00.012,n,279,6.48,5.76,6.84,11.5,54.1,1023.52,0,0,0,0,0.02964
2021/05/29 04:47:00.010,n,290,9,7.56,10.440002,11.5,54.5,1023.52,0,0,0,0,0.031357
2021/05/29 04:48:00.006,n,261,7.92,5.04,10.08,11.5,54.3,1023.52,0,0,0,0,0.033073
2021/05/29 04:49:00.000,n,252,8.64,6.84,9.72,11.5,54.5,1023.52,0,0,0,0,0.027847
2021/05/29 04:50:00.000,n,291,5.76,4.68,7.2,11.5,54.6,1023.52,0,0,0,0,0.033073
2021/05/29 04:51:00.000,n,269,9,8.28,9.36,11.5,54.3,1023.52,0,0,0,0,0.035706
2021/05/29 04:52:00.000,n,244,2.52,1.44,3.6,11.5,54.3,1023.62,0,0,0,0,0.033989
2021/05/29 04:53:00.008,n,311,2.88,0.72,4.68,11.5,54.3,1023.62,0,0,0,0,0.033989
2021/05/29 04:54:00.005,n,267,3.96,3.24,4.32,11.5,54.4,1023.62,0,0,0,0,0.033073